When you browse on this site, cookies collect data to enhance your experience and personalize the content and advertising you see.
Visit our Privacy Policy to learn more. By continuing to use the site, you agree to this use of cookies and data.
  • En España
  • Lista de países
  • Para 7 días
  • Temperatura del agua
  • El tiempo en el mapa
  • Informadores
  • user-avatar
    Iniciar sesión

    Tiempo cada hora Trydent i Bolzano

    Hoy, 1 Junio, Lunes

    Tiempo Temperatura Precipitaciones Viento Presión Humedad
    00:00 +12°C° 0 mm 1 mps 737 mmHg 82%
    01:00 +12°C° 0 mm 1 mps 738 mmHg 83%
    02:00 +12°C° 0 mm 1 mps 737 mmHg 82%
    03:00 +11°C° 0 mm 1 mps 737 mmHg 82%
    04:00 +11°C° 0 mm 1 mps 737 mmHg 82%
    05:00 +13°C° 0 mm 1 mps 737 mmHg 74%
    06:00 +16°C° 0 mm 1 mps 737 mmHg 66%
    07:00 +17°C° 0 mm 0 mps 737 mmHg 59%
    08:00 +21°C° 0 mm 1 mps 737 mmHg 53%
    09:00 +23°C° 0 mm 1 mps 737 mmHg 47%
    10:00 +26°C° 0 mm 1 mps 737 mmHg 42%
    11:00 +26°C° 0 mm 1 mps 737 mmHg 40%
    12:00 +27°C° 0 mm 1 mps 736 mmHg 38%
    13:00 +28°C° 0 mm 2 mps 736 mmHg 37%
    14:00 +28°C° 0.1 mm 2 mps 736 mmHg 41%
    15:00 +27°C° 0.1 mm 2 mps 736 mmHg 44%
    16:00 +27°C° 0.1 mm 2 mps 736 mmHg 48%
    17:00 +25°C° 0.5 mm 2 mps 736 mmHg 60%
    18:00 +23°C° 0.5 mm 1 mps 736 mmHg 72%
    19:00 +22°C° 0.5 mm 1 mps 736 mmHg 84%
    20:00 +20°C° 0.1 mm 1 mps 736 mmHg 87%
    21:00 +18°C° 0.1 mm 1 mps 736 mmHg 89%
    22:00 +16°C° 0.1 mm 1 mps 737 mmHg 92%
    23:00 +15°C° 0 mm 1 mps 737 mmHg 93%

    Mañana, 2 Junio, Martes

    Tiempo Temperatura Precipitaciones Viento Presión Humedad
    00:00 +15°C° 0 mm 1 mps 736 mmHg 93%
    01:00 +15°C° 0 mm 1 mps 736 mmHg 94%
    02:00 +14°C° 0 mm 1 mps 736 mmHg 93%
    03:00 +14°C° 0 mm 1 mps 736 mmHg 92%
    04:00 +14°C° 0 mm 1 mps 736 mmHg 92%
    05:00 +15°C° 0 mm 1 mps 735 mmHg 87%
    06:00 +18°C° 0 mm 1 mps 735 mmHg 82%
    07:00 +18°C° 0 mm 0 mps 735 mmHg 77%
    08:00 +22°C° 0 mm 1 mps 735 mmHg 66%
    09:00 +25°C° 0 mm 1 mps 735 mmHg 54%
    10:00 +27°C° 0 mm 1 mps 735 mmHg 42%
    11:00 +28°C° 0.1 mm 1 mps 735 mmHg 40%
    12:00 +28°C° 0.1 mm 2 mps 734 mmHg 37%
    13:00 +29°C° 0.1 mm 2 mps 734 mmHg 35%
    14:00 +28°C° 0.3 mm 2 mps 733 mmHg 39%
    15:00 +28°C° 0.3 mm 2 mps 733 mmHg 43%
    16:00 +27°C° 0.3 mm 2 mps 733 mmHg 47%
    17:00 +26°C° 0.8 mm 2 mps 733 mmHg 58%
    18:00 +24°C° 0.8 mm 1 mps 732 mmHg 69%
    19:00 +22°C° 0.8 mm 1 mps 732 mmHg 80%
    20:00 +20°C° 0.3 mm 1 mps 732 mmHg 82%
    21:00 +19°C° 0.3 mm 1 mps 733 mmHg 84%
    22:00 +16°C° 0.3 mm 1 mps 733 mmHg 85%
    23:00 +15°C° 0 mm 1 mps 733 mmHg 86%

    Pasado mañana, 3 Junio, Miércoles

    Tiempo Temperatura Precipitaciones Viento Presión Humedad
    00:00 +15°C° 0 mm 1 mps 732 mmHg 86%
    01:00 +14°C° 0 mm 1 mps 732 mmHg 87%
    02:00 +14°C° 0 mm 1 mps 732 mmHg 86%
    03:00 +14°C° 0 mm 1 mps 732 mmHg 85%
    04:00 +13°C° 0 mm 1 mps 732 mmHg 85%
    05:00 +15°C° 0 mm 1 mps 731 mmHg 80%
    06:00 +16°C° 0 mm 0 mps 731 mmHg 75%
    07:00 +18°C° 0 mm 0 mps 731 mmHg 71%
    08:00 +22°C° 0 mm 1 mps 731 mmHg 63%
    09:00 +23°C° 0 mm 1 mps 731 mmHg 56%
    10:00 +25°C° 0 mm 1 mps 730 mmHg 48%
    11:00 +26°C° 0.3 mm 2 mps 730 mmHg 50%
    12:00 +26°C° 0.3 mm 2 mps 730 mmHg 51%
    13:00 +26°C° 0.3 mm 3 mps 729 mmHg 53%
    14:00 +25°C° 0.7 mm 2 mps 729 mmHg 61%
    15:00 +25°C° 0.7 mm 2 mps 729 mmHg 68%
    16:00 +24°C° 0.7 mm 2 mps 728 mmHg 76%
    17:00 +23°C° 0.8 mm 2 mps 728 mmHg 81%
    18:00 +22°C° 0.8 mm 1 mps 728 mmHg 86%
    19:00 +21°C° 0.8 mm 1 mps 728 mmHg 91%
    20:00 +20°C° 0.6 mm 1 mps 728 mmHg 93%
    21:00 +19°C° 0.6 mm 1 mps 728 mmHg 94%
    22:00 +18°C° 0.6 mm 1 mps 729 mmHg 95%
    23:00 +16°C° 0.2 mm 0 mps 728 mmHg 96%

    4 Junio, Jueves

    Tiempo Temperatura Precipitaciones Viento Presión Humedad
    00:00 +15°C° 0.2 mm 0 mps 728 mmHg 97%
    01:00 +15°C° 0.2 mm 0 mps 728 mmHg 97%
    02:00 +15°C° 0.1 mm 0 mps 728 mmHg 97%
    03:00 +16°C° 0.1 mm 0 mps 727 mmHg 97%
    04:00 +16°C° 0.1 mm 0 mps 727 mmHg 97%
    05:00 +16°C° 0.1 mm 0 mps 727 mmHg 96%
    06:00 +17°C° 0.1 mm 0 mps 727 mmHg 95%
    07:00 +17°C° 0.1 mm 0 mps 727 mmHg 95%
    08:00 +19°C° 0.6 mm 1 mps 727 mmHg 95%
    09:00 +19°C° 0.6 mm 1 mps 727 mmHg 95%
    10:00 +19°C° 0.6 mm 1 mps 726 mmHg 95%
    11:00 +20°C° 0.6 mm 1 mps 726 mmHg 95%
    12:00 +20°C° 0.6 mm 1 mps 726 mmHg 95%
    13:00 +20°C° 0.6 mm 1 mps 725 mmHg 96%
    14:00 +20°C° 0.6 mm 1 mps 725 mmHg 96%
    15:00 +20°C° 0.6 mm 1 mps 725 mmHg 97%
    16:00 +19°C° 0.6 mm 1 mps 725 mmHg 98%
    17:00 +19°C° 0.6 mm 1 mps 725 mmHg 98%
    18:00 +19°C° 0.6 mm 1 mps 725 mmHg 99%
    19:00 +19°C° 0.6 mm 1 mps 725 mmHg 99%
    20:00 +19°C° 0.7 mm 1 mps 725 mmHg 99%
    21:00 +18°C° 0.7 mm 1 mps 725 mmHg 99%
    22:00 +18°C° 0.7 mm 1 mps 725 mmHg 99%
    23:00 +18°C° 0.7 mm 1 mps 725 mmHg 99%

    5 Junio, Viernes

    Tiempo Temperatura Precipitaciones Viento Presión Humedad
    00:00 +18°C° 0.7 mm 1 mps 725 mmHg 99%
    01:00 +18°C° 0.7 mm 1 mps 724 mmHg 99%
    02:00 +18°C° 0.8 mm 1 mps 724 mmHg 99%
    03:00 +18°C° 0.8 mm 1 mps 724 mmHg 99%
    04:00 +18°C° 0.8 mm 1 mps 724 mmHg 99%
    05:00 +16°C° 1.7 mm 0 mps 724 mmHg 98%
    06:00 +16°C° 1.7 mm 0 mps 724 mmHg 98%
    07:00 +16°C° 1.7 mm 0 mps 724 mmHg 98%
    08:00 +17°C° 1.4 mm 0 mps 724 mmHg 97%
    09:00 +19°C° 1.4 mm 1 mps 724 mmHg 96%
    10:00 +19°C° 1.4 mm 1 mps 724 mmHg 95%
    11:00 +19°C° 1 mm 1 mps 725 mmHg 94%
    12:00 +19°C° 1 mm 1 mps 725 mmHg 93%
    13:00 +19°C° 1 mm 1 mps 725 mmHg 92%
    14:00 +19°C° 1.3 mm 1 mps 725 mmHg 93%
    15:00 +19°C° 1.3 mm 1 mps 725 mmHg 94%
    16:00 +17°C° 1.3 mm 2 mps 725 mmHg 95%
    17:00 +18°C° 0.4 mm 1 mps 725 mmHg 94%
    18:00 +18°C° 0.4 mm 1 mps 725 mmHg 94%
    19:00 +18°C° 0.4 mm 1 mps 725 mmHg 93%
    20:00 +16°C° 0 mm 1 mps 726 mmHg 94%
    21:00 +15°C° 0 mm 1 mps 726 mmHg 94%
    22:00 +14°C° 0 mm 1 mps 727 mmHg 94%
    23:00 +14°C° 0 mm 1 mps 727 mmHg 94%

    6 Junio, Sábado

    Tiempo Temperatura Precipitaciones Viento Presión Humedad
    00:00 +13°C° 0 mm 1 mps 727 mmHg 94%
    01:00 +13°C° 0 mm 1 mps 727 mmHg 94%
    02:00 +14°C° 0 mm 1 mps 727 mmHg 94%
    03:00 +13°C° 0 mm 0 mps 727 mmHg 94%
    04:00 +13°C° 0 mm 0 mps 727 mmHg 94%
    05:00 +14°C° 0 mm 0 mps 727 mmHg 93%
    06:00 +15°C° 0 mm 0 mps 727 mmHg 92%
    07:00 +16°C° 0 mm 0 mps 727 mmHg 91%
    08:00 +16°C° 0.1 mm 0 mps 727 mmHg 91%
    09:00 +19°C° 0.1 mm 1 mps 727 mmHg 90%
    10:00 +19°C° 0.1 mm 1 mps 727 mmHg 89%
    11:00 +19°C° 0.3 mm 1 mps 727 mmHg 89%
    12:00 +20°C° 0.3 mm 1 mps 727 mmHg 88%
    13:00 +20°C° 0.3 mm 1 mps 727 mmHg 88%
    14:00 +21°C° 0.3 mm 1 mps 727 mmHg 85%
    15:00 +22°C° 0.3 mm 1 mps 727 mmHg 82%
    16:00 +22°C° 0.3 mm 1 mps 727 mmHg 79%
    17:00 +20°C° 0.2 mm 0 mps 727 mmHg 82%
    18:00 +20°C° 0.2 mm 0 mps 728 mmHg 85%
    19:00 +19°C° 0.2 mm 0 mps 728 mmHg 88%
    20:00 +18°C° 0.1 mm 0 mps 728 mmHg 90%
    21:00 +17°C° 0.1 mm 0 mps 729 mmHg 92%
    22:00 +18°C° 0.1 mm 1 mps 729 mmHg 95%
    23:00 +16°C° 0.1 mm 0 mps 729 mmHg 94%
    Mostrar más